When you browse on this site, cookies collect data to enhance your experience and personalize the content and advertising you see.
Visit our Privacy Policy to learn more. By continuing to use the site, you agree to this use of cookies and data.

Meteo pe oră la Dzialyn

Astăzi, 25 Septembrie, Vineri

Timp Temperatura Precipitaţii Vânt Presiune Umiditate
00:00 +17°C° 0 mm 2 m/s 743 mmHg 80%
01:00 +17°C° 0 mm 2 m/s 742 mmHg 80%
02:00 +17°C° 0.1 mm 3 m/s 742 mmHg 81%
03:00 +16°C° 0.1 mm 3 m/s 741 mmHg 82%
04:00 +16°C° 0.1 mm 3 m/s 741 mmHg 83%
05:00 +15°C° 0 mm 4 m/s 740 mmHg 81%
06:00 +16°C° 0 mm 5 m/s 739 mmHg 79%
07:00 +16°C° 0 mm 5 m/s 739 mmHg 77%
08:00 +19°C° 0 mm 6 m/s 738 mmHg 69%
09:00 +21°C° 0 mm 7 m/s 738 mmHg 62%
10:00 +23°C° 0 mm 8 m/s 737 mmHg 54%
11:00 +23°C° 0.4 mm 8 m/s 737 mmHg 56%
12:00 +23°C° 0.4 mm 9 m/s 737 mmHg 58%
13:00 +23°C° 0.4 mm 9 m/s 736 mmHg 59%
14:00 +21°C° 1.6 mm 8 m/s 736 mmHg 69%
15:00 +19°C° 1.6 mm 6 m/s 736 mmHg 78%
16:00 +16°C° 1.6 mm 5 m/s 736 mmHg 88%
17:00 +15°C° 0.4 mm 4 m/s 736 mmHg 88%
18:00 +16°C° 0.4 mm 3 m/s 736 mmHg 88%
19:00 +15°C° 0.4 mm 2 m/s 736 mmHg 88%
20:00 +15°C° 0 mm 2 m/s 736 mmHg 90%
21:00 +14°C° 0 mm 1 m/s 736 mmHg 91%
22:00 +14°C° 0 mm 1 m/s 737 mmHg 92%
23:00 +13°C° 0 mm 1 m/s 736 mmHg 93%

Mâine, 26 Septembrie, Sâmbătă

Timp Temperatura Precipitaţii Vânt Presiune Umiditate
00:00 +13°C° 0 mm 1 m/s 736 mmHg 94%
01:00 +13°C° 0 mm 1 m/s 736 mmHg 95%
02:00 +13°C° 0 mm 2 m/s 736 mmHg 94%
03:00 +12°C° 0 mm 3 m/s 735 mmHg 94%
04:00 +12°C° 0 mm 4 m/s 735 mmHg 94%
05:00 +12°C° 0 mm 4 m/s 734 mmHg 93%
06:00 +13°C° 0 mm 5 m/s 734 mmHg 92%
07:00 +13°C° 0 mm 6 m/s 733 mmHg 92%
08:00 +14°C° 0.4 mm 6 m/s 733 mmHg 91%
09:00 +15°C° 0.4 mm 5 m/s 733 mmHg 91%
10:00 +16°C° 0.4 mm 5 m/s 733 mmHg 90%
11:00 +16°C° 0.2 mm 6 m/s 733 mmHg 88%
12:00 +17°C° 0.2 mm 6 m/s 733 mmHg 86%
13:00 +17°C° 0.2 mm 6 m/s 733 mmHg 84%
14:00 +17°C° 0.3 mm 6 m/s 733 mmHg 82%
15:00 +16°C° 0.3 mm 5 m/s 734 mmHg 81%
16:00 +16°C° 0.3 mm 5 m/s 734 mmHg 79%
17:00 +15°C° 0 mm 4 m/s 734 mmHg 78%
18:00 +14°C° 0 mm 4 m/s 735 mmHg 77%
19:00 +13°C° 0 mm 3 m/s 735 mmHg 76%
20:00 +13°C° 0 mm 3 m/s 736 mmHg 75%
21:00 +13°C° 0 mm 2 m/s 737 mmHg 73%
22:00 +13°C° 0 mm 2 m/s 737 mmHg 72%
23:00 +12°C° 0 mm 2 m/s 737 mmHg 73%

Poimâine, 27 Septembrie, Duminică

Timp Temperatura Precipitaţii Vânt Presiune Umiditate
00:00 +11°C° 0 mm 3 m/s 738 mmHg 74%
01:00 +10°C° 0 mm 3 m/s 738 mmHg 74%
02:00 +10°C° 0.1 mm 3 m/s 738 mmHg 75%
03:00 +10°C° 0.1 mm 2 m/s 738 mmHg 76%
04:00 +10°C° 0.1 mm 2 m/s 738 mmHg 77%
05:00 +10°C° 0.3 mm 2 m/s 738 mmHg 80%
06:00 +9°C° 0.3 mm 2 m/s 739 mmHg 82%
07:00 +9°C° 0.3 mm 2 m/s 739 mmHg 84%
08:00 +9°C° 0.1 mm 3 m/s 739 mmHg 85%
09:00 +10°C° 0.1 mm 3 m/s 739 mmHg 85%
10:00 +10°C° 0.1 mm 4 m/s 739 mmHg 85%
11:00 +10°C° 1 mm 4 m/s 739 mmHg 87%
12:00 +9°C° 1 mm 5 m/s 739 mmHg 88%
13:00 +9°C° 1 mm 6 m/s 739 mmHg 90%
14:00 +9°C° 1.8 mm 6 m/s 739 mmHg 90%
15:00 +8°C° 1.8 mm 6 m/s 739 mmHg 91%
16:00 +8°C° 1.8 mm 7 m/s 739 mmHg 92%
17:00 +9°C° 1.7 mm 7 m/s 739 mmHg 93%
18:00 +9°C° 1.7 mm 7 m/s 739 mmHg 93%
19:00 +9°C° 1.7 mm 6 m/s 739 mmHg 93%
20:00 +9°C° 0.4 mm 6 m/s 739 mmHg 94%
21:00 +9°C° 0.4 mm 5 m/s 740 mmHg 94%
22:00 +9°C° 0.4 mm 5 m/s 740 mmHg 94%
23:00 +10°C° 0.1 mm 5 m/s 740 mmHg 95%

28 Septembrie, Luni

Timp Temperatura Precipitaţii Vânt Presiune Umiditate
00:00 +10°C° 0.1 mm 5 m/s 740 mmHg 95%
01:00 +10°C° 0.1 mm 5 m/s 740 mmHg 95%
02:00 +10°C° 0.2 mm 5 m/s 740 mmHg 95%
03:00 +11°C° 0.2 mm 4 m/s 740 mmHg 95%
04:00 +11°C° 0.2 mm 4 m/s 740 mmHg 95%
05:00 +11°C° 0.1 mm 3 m/s 740 mmHg 95%
06:00 +11°C° 0.1 mm 3 m/s 740 mmHg 94%
07:00 +11°C° 0.1 mm 3 m/s 741 mmHg 93%
08:00 +11°C° 0.4 mm 4 m/s 741 mmHg 92%
09:00 +11°C° 0.4 mm 4 m/s 741 mmHg 90%
10:00 +10°C° 0.4 mm 5 m/s 741 mmHg 89%
11:00 +10°C° 0.6 mm 5 m/s 742 mmHg 89%
12:00 +10°C° 0.6 mm 6 m/s 742 mmHg 90%
13:00 +10°C° 0.6 mm 6 m/s 742 mmHg 90%
14:00 +10°C° 0.6 mm 6 m/s 742 mmHg 89%
15:00 +10°C° 0.6 mm 6 m/s 742 mmHg 88%
16:00 +9°C° 0.6 mm 6 m/s 743 mmHg 87%
17:00 +9°C° 0.1 mm 6 m/s 743 mmHg 87%
18:00 +10°C° 0.1 mm 6 m/s 743 mmHg 86%
19:00 +10°C° 0.1 mm 6 m/s 743 mmHg 86%
20:00 +10°C° 0.1 mm 6 m/s 744 mmHg 85%
21:00 +10°C° 0.1 mm 5 m/s 744 mmHg 85%
22:00 +10°C° 0.1 mm 5 m/s 744 mmHg 84%
23:00 +9°C° 0.5 mm 5 m/s 744 mmHg 85%

29 Septembrie, Marţi

Timp Temperatura Precipitaţii Vânt Presiune Umiditate
00:00 +9°C° 0.5 mm 5 m/s 744 mmHg 87%
01:00 +10°C° 0.5 mm 4 m/s 744 mmHg 88%
02:00 +10°C° 0.6 mm 4 m/s 744 mmHg 89%
03:00 +10°C° 0.6 mm 4 m/s 744 mmHg 90%
04:00 +10°C° 0.6 mm 3 m/s 744 mmHg 91%
05:00 +10°C° 0.4 mm 3 m/s 745 mmHg 92%
06:00 +10°C° 0.4 mm 3 m/s 745 mmHg 92%
07:00 +10°C° 0.4 mm 3 m/s 745 mmHg 92%
08:00 +10°C° 0.2 mm 2 m/s 745 mmHg 91%
09:00 +10°C° 0.2 mm 2 m/s 745 mmHg 90%
10:00 +12°C° 0.2 mm 2 m/s 745 mmHg 89%
11:00 +12°C° 0 mm 2 m/s 746 mmHg 86%
12:00 +13°C° 0 mm 1 m/s 746 mmHg 82%
13:00 +14°C° 0 mm 1 m/s 746 mmHg 79%
14:00 +14°C° 0 mm 1 m/s 746 mmHg 78%
15:00 +14°C° 0 mm 1 m/s 746 mmHg 76%
16:00 +15°C° 0 mm 1 m/s 746 mmHg 74%
17:00 +14°C° 0 mm 1 m/s 747 mmHg 79%
18:00 +13°C° 0 mm 2 m/s 747 mmHg 83%
19:00 +12°C° 0 mm 2 m/s 748 mmHg 88%
20:00 +10°C° 0 mm 2 m/s 748 mmHg 88%
21:00 +10°C° 0 mm 2 m/s 748 mmHg 88%
22:00 +10°C° 0 mm 2 m/s 748 mmHg 89%
23:00 +10°C° 0 mm 2 m/s 748 mmHg 89%

30 Septembrie, Miercuri

Timp Temperatura Precipitaţii Vânt Presiune Umiditate
00:00 +9°C° 0 mm 2 m/s 748 mmHg 89%
01:00 +9°C° 0 mm 2 m/s 748 mmHg 90%
02:00 +9°C° 0 mm 2 m/s 749 mmHg 90%
03:00 +9°C° 0 mm 2 m/s 749 mmHg 91%
04:00 +9°C° 0 mm 2 m/s 749 mmHg 91%
05:00 +9°C° 0 mm 2 m/s 749 mmHg 91%
06:00 +9°C° 0 mm 3 m/s 749 mmHg 90%
07:00 +10°C° 0 mm 3 m/s 749 mmHg 90%
08:00 +11°C° 0 mm 3 m/s 749 mmHg 86%
09:00 +12°C° 0 mm 4 m/s 749 mmHg 83%
10:00 +14°C° 0 mm 4 m/s 749 mmHg 80%
11:00 +14°C° 0 mm 4 m/s 748 mmHg 80%
12:00 +14°C° 0 mm 4 m/s 748 mmHg 81%
13:00 +14°C° 0 mm 4 m/s 748 mmHg 81%
14:00 +15°C° 0 mm 5 m/s 748 mmHg 80%
15:00 +15°C° 0 mm 5 m/s 748 mmHg 80%
16:00 +15°C° 0 mm 5 m/s 747 mmHg 79%
17:00 +14°C° 0 mm 4 m/s 747 mmHg 83%
18:00 +13°C° 0 mm 4 m/s 747 mmHg 87%
19:00 +12°C° 0 mm 4 m/s 747 mmHg 91%
20:00 +12°C° 0 mm 3 m/s 747 mmHg 92%
21:00 +12°C° 0 mm 3 m/s 747 mmHg 94%
22:00 +12°C° 0 mm 3 m/s 747 mmHg 95%
23:00 +12°C° 0 mm 3 m/s 747 mmHg 95%
Arată mai mult